GW2148 Weather Reports


time (UTC)temp
F
wind
direction
speed
knots
gust
knots
rain 1hr
in
rain 24hr
in
rain mn
in
humidity
%
barometer
mb
20260906195518 91 89 2.6 5.2 0.00 0.00 0.00 47 1015.6
20260906195040 91 74 1.7 7.0 0.00 0.00 0.00 48 1015.7
20260906195034 91 89 2.6 7.0 0.00 0.00 0.00 46 1015.9
20260906194025 92 94 1.7 6.1 0.00 0.00 0.00 47 1015.9
20260906193541 92 67 1.7 6.1 0.00 0.00 0.00 45 1016.1
20260906193133 92 91 1.7 7.0 0.00 0.00 0.00 45 1016.3
20260906192528 92 123 0.9 7.0 0.00 0.00 0.00 43 1016.3
20260906192034 93 105 2.6 5.2 0.00 0.00 0.00 44 1016.4
20260906191753 93 86 1.7 4.3 0.00 0.00 0.00 44 1016.6
20260906191029 93 91 1.7 5.2 0.00 0.00 0.00 45 1016.7
20260906190544 92 105 2.6 7.8 0.00 0.00 0.00 45 1016.8
20260906190228 92 69 1.7 7.8 0.00 0.00 0.00 45 1016.8
20260906185613 92 44 0.9 7.0 0.00 0.00 0.00 44 1016.9
20260906185028 92 140 2.6 7.0 0.00 0.00 0.00 44 1017.1
20260906184720 92 39 1.7 5.2 0.00 0.00 0.00 44 1017.1
20260906184118 92 45 1.7 5.2 0.00 0.00 0.00 44 1017.1
20260906183534 93 69 1.7 7.0 0.00 0.00 0.00 45 1017.3
20260906183216 93 19 1.7 7.8 0.00 0.00 0.00 44 1017.4
20260906182626 93 38 3.5 9.6 0.00 0.00 0.00 44 1017.5
20260906182025 93 44 2.6 9.6 0.00 0.00 0.00 45 1017.6
20260906181801 92 30 2.6 7.0 0.00 0.00 0.00 45 1017.9
20260906181027 92 317 2.6 8.7 0.00 0.00 0.00 45 1017.9
20260906180532 92 37 3.5 8.7 0.00 0.00 0.00 47 1018.1
20260906180256 91 31 3.5 7.8 0.00 0.00 0.00 47 1018.0
20260906175518 91 341 2.6 7.8 0.00 0.00 0.00 47 1018.0
20260906175044 91 346 2.6 7.0 0.00 0.00 0.00 48 1018.1
20260906174749 91 85 3.5 7.0 0.00 0.00 0.00 47 1018.1
20260906174020 91 29 2.6 5.2 0.00 0.00 0.00 47 1018.2
20260906173523 91 35 0.9 7.0 0.00 0.00 0.00 48 1018.3
20260906173245 91 78 2.6 7.0 0.00 0.00 0.00 48 1018.2
20260906172525 91 17 1.7 7.8 0.00 0.00 0.00 48 1018.5
20260906172033 91 5 3.5 7.8 0.00 0.00 0.00 48 1018.6
20260906171642 91 360 3.5 7.0 0.00 0.00 0.00 48 1018.6
20260906171057 91 50 3.5 7.8 0.00 0.00 0.00 49 1018.6
20260906170521 91 33 1.7 6.1 0.00 0.00 0.00 49 1018.7
20260906170222 90 36 3.5 7.8 0.00 0.00 0.00 49 1018.7
20260906165616 90 355 3.5 7.8 0.00 0.00 0.00 49 1018.8
20260906165025 90 13 3.5 7.0 0.00 0.00 0.00 49 1019.1
20260906164756 90 15 3.5 8.7 0.00 0.00 0.00 50 1019.0
20260906164024 90 33 1.7 7.0 0.00 0.00 0.00 49 1019.2
20260906163536 89 86 2.6 7.0 0.00 0.00 0.00 50 1019.1
20260906163218 89 59 3.5 7.8 0.00 0.00 0.00 51 1019.2
20260906162536 89 40 3.5 7.8 0.00 0.00 0.00 52 1019.4
20260906162039 88 34 3.5 7.8 0.00 0.00 0.00 52 1019.4
20260906161815 88 348 2.6 8.7 0.00 0.00 0.00 53 1019.2
20260906161025 87 319 1.7 7.0 0.00 0.00 0.00 53 1019.3
20260906160539 87 325 2.6 7.8 0.00 0.00 0.00 54 1019.1
20260906160251 86 26 4.3 7.8 0.00 0.00 0.00 55 1019.1
20260906155518 85 347 3.5 8.7 0.00 0.00 0.00 58 1019.2
20260906155040 85 12 3.5 9.6 0.00 0.00 0.00 59 1019.0
20260906154615 84 286 5.2 9.6 0.00 0.00 0.00 60 1018.8
20260906154122 83 350 4.3 10.4 0.00 0.00 0.00 61 1018.8
20260906153524 83 355 4.3 10.4 0.00 0.00 0.00 62 1018.9
20260906153145 83 344 6.1 8.7 0.00 0.00 0.00 61 1018.9
20260906152641 83 350 5.2 9.6 0.00 0.00 0.00 61 1018.8
20260906152039 83 340 7.8 9.6 0.00 0.00 0.00 59 1018.8
20260906151731 84 24 4.3 9.6 0.00 0.00 0.00 58 1018.8
20260906151023 83 12 6.1 9.6 0.00 0.00 0.00 58 1018.8
20260906150523 83 317 7.0 9.6 0.00 0.00 0.00 59 1019.0
20260906150320 82 328 5.2 9.6 0.00 0.00 0.00 60 1018.8
20260906145524 82 344 4.3 8.7 0.00 0.00 0.00 62 1018.7
20260906145043 81 360 5.2 8.7 0.00 0.00 0.00 64 1018.8
20260906144649 81 319 5.2 8.7 0.00 0.00 0.00 65 1018.7
20260906144056 80 330 2.6 10.4 0.00 0.00 0.00 64 1018.8
20260906143521 81 323 7.0 12.2 0.00 0.00 0.00 64 1018.8
20260906143236 82 318 5.2 9.6 0.00 0.00 0.00 66 1018.8
20260906142527 81 288 0.9 2.6 0.00 0.00 0.00 65 1018.4
20260906142028 81 250 0.9 2.6 0.00 0.00 0.00 66 1018.4
20260906141752 80 250 0.0 1.7 0.00 0.00 0.00 68 1018.2
20260906141019 79 250 0.0 1.7 0.00 0.00 0.00 69 1018.2
20260906140544 79 250 0.0 1.7 0.00 0.00 0.00 71 1018.0
20260906140147 78 202 0.0 1.7 0.00 0.00 0.00 73 1018.2
20260906135551 77 84 0.9 1.7 0.00 0.00 0.00 76 1018.0
20260906135025 76 84 0.0 1.7 0.00 0.00 0.00 77 1017.8
20260906134748 75 84 0.0 1.7 0.00 0.00 0.00 77 1017.9
20260906134034 75 84 0.0 1.7 0.00 0.00 0.00 78 1017.8
20260906133535 74 84 0.9 1.7 0.00 0.00 0.00 78 1017.7
20260906133119 74 84 0.0 0.9 0.00 0.00 0.00 78 1017.7
20260906132531 74 84 0.0 0.9 0.00 0.00 0.00 78 1017.6
20260906132024 73 84 0.9 0.9 0.00 0.00 0.00 78 1017.5
20260906131915 73 84 0.0 0.0 0.00 0.00 0.00 78 1017.5
20260906060541 70 117 0.9 2.6 0.00 0.00 0.00 87 1015.2
20260906060218 70 86 0.9 1.7 0.00 0.00 0.00 87 1015.2
20260906055557 70 92 0.0 1.7 0.00 0.00 0.00 87 1015.3
20260906055023 71 103 0.9 1.7 0.00 0.00 0.00 87 1015.2
20260906054717 71 99 0.9 1.7 0.00 0.00 0.00 87 1015.2
20260906054021 71 109 0.9 1.7 0.00 0.00 0.00 87 1015.1
20260906053544 71 104 0.0 0.9 0.00 0.00 0.00 87 1015.2
20260906053126 71 104 0.0 2.6 0.00 0.00 0.00 87 1015.2
20260906052635 71 104 0.9 2.6 0.00 0.00 0.00 87 1015.3
20260906052017 71 78 0.9 1.7 0.00 0.00 0.00 87 1015.3
20260906051652 71 261 0.0 1.7 0.00 0.00 0.00 87 1015.4
20260906051144 71 261 0.0 1.7 0.00 0.00 0.00 87 1015.4
20260906050523 71 261 0.0 1.7 0.00 0.00 0.00 87 1015.3
20260906050320 71 277 0.0 0.9 0.00 0.00 0.00 87 1015.3
20260906045525 71 277 0.0 0.0 0.00 0.00 0.00 87 1015.4
20260906045038 71 277 0.0 0.0 0.00 0.00 0.00 87 1015.3
20260906044717 71 277 0.0 0.0 0.00 0.00 0.00 87 1015.4
20260906044058 71 277 0.0 0.0 0.00 0.00 0.00 87 1015.5
20260906043531 72 277 0.0 0.0 0.00 0.00 0.00 86 1015.5
20260906043124 72 277 0.0 0.0 0.00 0.00 0.00 86 1015.4
20260906042627 72 277 0.0 0.0 0.00 0.00 0.00 86 1015.5
20260906042024 72 277 0.0 0.0 0.00 0.00 0.00 86 1015.5
20260906041631 72 276 0.0 0.0 0.00 0.00 0.00 86 1015.5
20260906041038 72 276 0.0 0.0 0.00 0.00 0.00 85 1015.4
20260906040524 73 276 0.0 0.9 0.00 0.00 0.00 85 1015.4
20260906040219 73 276 0.0 1.7 0.00 0.00 0.00 85 1015.5
20260906035602 73 276 0.9 1.7 0.00 0.00 0.00 85 1015.5
20260906035027 73 274 0.0 0.9 0.00 0.00 0.00 85 1015.4
20260906034717 73 274 0.0 0.0 0.00 0.00 0.00 85 1015.3
20260906034034 73 274 0.0 0.0 0.00 0.00 0.00 85 1015.2
20260906033521 73 274 0.0 0.9 0.00 0.00 0.00 85 1015.3
20260906033242 73 274 0.0 1.7 0.00 0.00 0.00 84 1015.1
20260906032524 73 274 0.0 1.7 0.00 0.00 0.00 84 1015.2
20260906032035 73 274 0.0 1.7 0.00 0.00 0.00 84 1015.2
20260906031649 74 238 0.0 1.7 0.00 0.00 0.00 84 1015.1
20260906031037 74 238 0.9 1.7 0.00 0.00 0.00 84 1015.1
20260906030545 74 238 0.0 0.0 0.00 0.00 0.00 83 1015.2
20260906030218 74 238 0.0 0.0 0.00 0.00 0.00 83 1015.2
20260906025630 74 238 0.0 0.0 0.00 0.00 0.00 82 1015.1
20260906025026 74 238 0.0 0.9 0.00 0.00 0.00 82 1015.0
20260906024644 74 238 0.0 0.9 0.00 0.00 0.00 82 1015.0
20260906024023 75 238 0.0 1.7 0.00 0.00 0.00 82 1015.0
20260906023538 75 238 0.0 1.7 0.00 0.00 0.00 82 1014.8
20260906023108 75 190 0.0 2.6 0.00 0.00 0.00 82 1014.6
20260906022528 75 190 0.0 2.6 0.00 0.00 0.00 82 1014.7
20260906022040 75 190 0.9 3.5 0.00 0.00 0.00 82 1014.6
20260906021622 75 222 0.9 5.2 0.00 0.00 0.00 82 1014.7
20260906021126 75 252 0.9 2.6 0.00 0.00 0.00 83 1014.7
20260906020520 75 148 0.0 0.0 0.00 0.00 0.00 82 1014.3
20260906020249 75 148 0.0 0.0 0.00 0.00 0.00 82 1014.4
20260906015530 75 148 0.0 2.6 0.00 0.00 0.00 81 1014.3
20260906015042 75 148 0.0 2.6 0.00 0.00 0.00 81 1014.3
20260906014800 76 149 0.0 1.7 0.00 0.00 0.00 81 1014.2
20260906014036 76 148 0.9 2.6 0.00 0.00 0.00 81 1014.2
20260906013529 76 149 0.0 1.7 0.00 0.00 0.00 80 1014.3
20260906013218 77 28 0.0 0.0 0.00 0.00 0.00 79 1014.2
20260906012611 77 28 0.0 0.0 0.00 0.00 0.00 79 1014.3
20260906012024 78 28 0.0 0.0 0.00 0.00 0.00 79 1014.4
20260906011731 78 28 0.0 1.7 0.00 0.00 0.00 78 1014.4
20260906011140 78 28 0.0 2.6 0.00 0.00 0.00 77 1014.3
20260906010523 78 28 0.9 2.6 0.00 0.00 0.00 77 1014.4
20260906010144 78 47 0.0 3.5 0.00 0.00 0.00 77 1014.2
20260906005532 78 34 0.9 3.5 0.00 0.00 0.00 76 1014.1
20260906005041 78 47 0.9 2.6 0.00 0.00 0.00 77 1013.9
20260906004742 78 298 0.9 2.6 0.00 0.00 0.00 76 1013.8
20260906004027 78 281 0.9 4.3 0.00 0.00 0.00 78 1013.8
20260906003524 78 13 0.9 4.3 0.00 0.00 0.00 78 1014.0
20260906003141 78 300 0.0 2.6 0.00 0.00 0.00 78 1014.0
20260906002617 78 258 0.0 3.5 0.00 0.00 0.00 77 1014.1
20260906002026 78 265 2.6 5.2 0.00 0.00 0.00 77 1014.3
20260906001635 78 263 1.7 5.2 0.00 0.00 0.00 76 1014.1
20260906001117 78 245 2.6 7.8 0.00 0.00 0.00 75 1014.1
20260906000518 78 257 2.6 7.8 0.00 0.00 0.00 73 1014.0
20260906000219 78 271 2.6 4.3 0.00 0.00 0.00 72 1013.9
20260905235637 78 267 1.7 4.3 0.00 0.00 0.00 72 1013.7
20260905235026 78 224 1.7 5.2 0.00 0.00 0.00 72 1013.7
20260905234752 78 265 1.7 5.2 0.00 0.00 0.00 72 1013.7
20260905234028 78 257 1.7 7.8 0.00 0.00 0.00 72 1014.0
20260905233542 78 265 3.5 7.8 0.00 0.00 0.00 71 1014.1
20260905233241 78 284 3.5 7.8 0.00 0.00 0.00 71 1014.2
20260905232525 79 281 3.5 7.8 0.00 0.00 0.00 71 1014.1
20260905232036 79 296 4.3 7.8 0.00 0.00 0.00 70 1014.4
20260905231718 79 299 3.5 13.0 0.00 0.00 0.00 69 1014.8
20260905231047 80 265 7.8 13.0 0.00 0.00 0.00 68 1015.0
20260905230524 80 284 9.6 13.9 0.00 0.00 0.00 66 1015.1
20260905230225 81 300 8.7 15.6 0.00 0.00 0.00 63 1015.3
20260905225615 82 283 9.6 15.6 0.00 0.00 0.00 62 1015.4
20260905225028 82 277 9.6 19.1 0.00 0.00 0.00 60 1015.4
20260905224647 83 262 11.3 21.7 0.00 0.00 0.00 57 1015.6
20260905224024 86 257 13.9 23.5 0.00 0.00 0.00 51 1015.1
20260905223529 91 213 4.3 17.4 0.00 0.00 0.00 47 1014.6
20260905223142 91 105 0.0 2.6 0.00 0.00 0.00 45 1014.4
20260905222637 92 105 0.9 5.2 0.00 0.00 0.00 43 1013.9
20260905222034 92 105 1.7 5.2 0.00 0.00 0.00 43 1013.9
20260905221738 92 98 1.7 5.2 0.00 0.00 0.00 42 1013.7
20260905221020 93 120 1.7 5.2 0.00 0.00 0.00 41 1013.5
20260905220524 93 119 2.6 7.0 0.00 0.00 0.00 41 1013.2
20260905220229 94 120 3.5 7.0 0.00 0.00 0.00 40 1013.6
20260905215529 94 134 3.5 9.6 0.00 0.00 0.00 40 1013.8
20260905215031 94 137 4.3 9.6 0.00 0.00 0.00 39 1014.0
20260905214657 95 138 2.6 6.1 0.00 0.00 0.00 39 1013.7
20260905214117 95 113 1.7 7.8 0.00 0.00 0.00 39 1013.8
20260905213533 95 94 1.7 10.4 0.00 0.00 0.00 38 1014.0
20260905213125 96 142 6.1 10.4 0.00 0.00 0.00 36 1013.7
20260905212537 97 119 2.6 9.6 0.00 0.00 0.00 36 1013.5
20260905212039 97 157 4.3 9.6 0.00 0.00 0.00 36 1013.6
20260905211628 98 111 1.7 9.6 0.00 0.00 0.00 36 1013.4
20260905211029 99 157 5.2 10.4 0.00 0.00 0.00 36 1013.5
20260905210529 99 120 4.3 10.4 0.00 0.00 0.00 36 1013.5
20260905210201 98 135 6.1 9.6 0.00 0.00 0.00 37 1013.8
20260905205534 97 98 4.3 8.7 0.00 0.00 0.00 38 1013.9
20260905205040 97 85 4.3 9.6 0.00 0.00 0.00 36 1014.0
20260905204714 97 129 5.2 9.6 0.00 0.00 0.00 36 1014.1
20260905204044 97 130 3.5 8.7 0.00 0.00 0.00 37 1014.2
20260905203544 98 169 3.5 12.2 0.00 0.00 0.00 37 1014.2
20260905203215 98 179 3.5 12.2 0.00 0.00 0.00 37 1014.2
20260905202631 97 178 5.2 11.3 0.00 0.00 0.00 38 1014.2
20260905202020 97 109 4.3 10.4 0.00 0.00 0.00 37 1014.1
20260905201737 97 109 4.3 10.4 0.00 0.00 0.00 37 1014.3
20260905201024 98 113 4.3 10.4 0.00 0.00 0.00 36 1014.4
20260905200524 99 151 6.1 10.4 0.00 0.00 0.00 36 1014.6
20260905200303 99 161 4.3 12.2 0.00 0.00 0.00 36 1014.4